Location: Camp Creek
(33.9000°N, 111.8167°W)
Time: 09:04:43
(UTC-07:00)

DELTA 2 R/B (1) - Visible Passes

Search period start: 29 August 2014 00:00
Search period end: 08 September 2014 00:00
Orbit: 792 x 803 km, 39.6° (Epoch: 25 August)

Date Brightness Start Highest point End Pass type
(mag) Time Alt. Az. Time Alt. Az. Time Alt. Az.
29 Aug 5.6 02:29:27 23° ENE 02:29:27 23° ENE 02:31:41 10° ENE visible
29 Aug 3.8 04:10:16 27° WNW 04:13:19 68° NNE 04:18:50 10° ESE visible
30 Aug 6.4 02:00:54 11° ENE 02:00:54 11° ENE 02:01:04 10° ENE visible
30 Aug 3.8 03:41:44 55° NNW 03:42:43 65° NNE 03:48:13 10° E visible
30 Aug 4.0 05:23:50 10° WNW 05:29:05 45° SSW 05:34:20 10° SE visible
31 Aug 4.3 03:13:22 48° ENE 03:13:22 48° ENE 03:17:35 10° E visible
31 Aug 3.8 04:54:13 15° WNW 04:58:32 49° SSW 05:03:50 10° SE visible
01 Sep 5.6 02:45:12 21° E 02:45:12 21° E 02:46:58 10° E visible
01 Sep 3.7 04:26:04 36° W 04:27:58 53° SSW 04:33:20 10° SE visible
01 Sep 5.3 20:46:10 10° SSW 20:47:52 18° S 20:47:52 18° S visible
02 Sep 3.7 03:58:06 53° S 03:58:06 53° S 04:02:49 10° SE visible
02 Sep 4.6 20:15:46 10° SSW 20:20:03 26° SSE 20:20:03 26° SSE visible
02 Sep 6.2 22:00:52 10° WSW 22:00:55 10° WSW 22:00:55 10° WSW visible
03 Sep 5.2 03:30:18 23° SE 03:30:18 23° SE 03:32:17 10° SE visible
03 Sep 5.1 05:11:10 14° WSW 05:12:39 15° SW 05:15:46 10° S visible
03 Sep 4.7 19:45:24 10° SSW 19:49:49 24° SE 19:52:03 19° ESE visible
03 Sep 5.0 21:30:17 10° WSW 21:32:54 29° WSW 21:32:54 29° WSW visible
04 Sep 5.2 04:43:29 16° SSW 04:43:29 16° SSW 04:45:35 10° S visible
04 Sep 4.8 19:15:03 10° S 19:19:16 22° SE 19:23:29 10° E visible
04 Sep 3.6 20:59:42 10° WSW 21:04:42 71° SW 21:04:42 71° SW visible
05 Sep 3.4 20:29:07 10° WSW 20:34:41 76° SSE 20:36:19 47° E visible
05 Sep 6.0 22:15:57 10° W 22:17:08 16° W 22:17:08 16° W visible
06 Sep 3.5 19:58:33 10° SW 20:04:06 71° SSE 20:07:44 22° ENE visible
06 Sep 5.0 21:45:18 10° W 21:48:33 33° WNW 21:48:33 33° WNW visible
07 Sep 3.6 19:28:00 10° SW 19:33:32 66° SSE 19:39:01 10° ENE visible
07 Sep 4.1 21:14:40 10° W 21:19:49 54° NNW 21:19:49 54° NNW visible
